Home   Weather   Geitanger   Past weeks
Flag for Norway

Past Weather in Geitanger, Norway — Yesterday and Last 2 Weeks

Now
52 °F

Drizzle. Broken clouds.


Feels Like: 49 °F
Forecast: 50 / 44 °F
Wind: 8 mph from South

Location: Bergen / Flesland
Current Time: Oct 21, 2020 at 9:52:10 am
Latest Report: Oct 21, 2020 at 8:50 am
Visibility: 6 mi
Pressure29.45 "Hg
Humidity: 94%
Dew Point: 50 °F
Location of GeitangerLocation

Past Weather in Geitanger — Graph

°F

Geitanger Temperature Yesterday

Maximum temperature yesterday: 48 °F (at 2:20 pm)
Minimum temperature yesterday: 41 °F (at 12:20 am)
Average temperature yesterday: 45 °F

High & Low Weather Summary for the Past Weeks

 TemperatureHumidityPressure
High61 °F (Oct 6, 1:20 pm)100% (Oct 8, 12:20 am)30.45 "Hg (Oct 8, 12:20 am)
Low34 °F (Oct 19, 4:20 am)44% (Oct 13, 3:50 pm)29.30 "Hg (Oct 6, 4:20 pm)
Average46 °F82%29.91 "Hg
* Reported Oct 6 8:20 am — Oct 21 8:20 am, Geitanger. Weather by CustomWeather, © 2020

Note: Actual official high and low records may vary slightly from our data, if they occured in-between our weather recording intervals... More about our weather records

Geitanger Weather History for the Previous 24 Hours

Scroll right to see more
 ConditionsComfort  
Time TempWeatherWind HumidityBarometerVisibility
8:20 am
Wed, Oct 21
52 °FPartly cloudy.10 mph94%29.42 "Hg6 mi
7:50 am52 °FPassing clouds.8 mph94%29.42 "HgN/A
7:20 am52 °FPartly cloudy.12 mph94%29.42 "HgN/A
6:50 am52 °FPartly cloudy.10 mph94%29.42 "HgN/A
6:20 am50 °FDrizzle. Overcast.10 mph100%29.42 "HgN/A
5:50 am50 °FPartly cloudy.9 mph94%29.42 "HgN/A
5:20 am50 °FPassing clouds.10 mph94%29.42 "HgN/A
4:50 am50 °FPassing clouds.9 mph94%29.42 "HgN/A
4:20 am48 °FPassing clouds.10 mph100%29.42 "HgN/A
3:50 am48 °FPassing clouds.10 mph94%29.42 "Hg4 mi
3:20 am48 °FLight rain. Fog.2 mph94%29.42 "Hg2 mi
2:50 am48 °FPassing clouds.7 mph94%29.42 "Hg6 mi
2:20 am48 °FPartly cloudy.5 mph87%29.42 "HgN/A
1:50 am48 °FPassing clouds.5 mph87%29.42 "HgN/A
1:20 am48 °FPassing clouds.5 mph87%29.42 "HgN/A
12:50 am46 °FPassing clouds.3 mph93%29.42 "HgN/A
12:20 am46 °FPassing clouds.5 mph93%29.42 "HgN/A
11:50 pm
Tue, Oct 20
46 °FLight rain. Passing clouds.5 mph93%29.42 "HgN/A
11:20 pm46 °FLight rain. Passing clouds.5 mph87%29.42 "HgN/A
10:50 pm46 °FLight rain. Partly cloudy.3 mph87%29.42 "HgN/A
10:20 pm46 °FLight rain. Partly cloudy.5 mph87%29.45 "HgN/A
9:50 pm46 °FScattered showers. Partly cloudy.7 mph87%29.45 "HgN/A
9:20 pm46 °FLight rain. Partly cloudy.8 mph87%29.45 "HgN/A
8:50 pm46 °FLight rain. Partly cloudy.10 mph93%29.47 "HgN/A
7:50 pm46 °FLight rain. Partly cloudy.13 mph93%29.47 "HgN/A
7:20 pm46 °FLight rain. Partly cloudy.12 mph93%29.50 "HgN/A
6:50 pm46 °FLight rain. Partly cloudy.13 mph93%29.50 "HgN/A
6:20 pm46 °FLight rain. Partly cloudy.14 mph93%29.50 "HgN/A
5:50 pm46 °FLight rain. Broken clouds.10 mph93%29.50 "HgN/A
5:20 pm46 °FLight rain. Broken clouds.13 mph93%29.53 "Hg6 mi
4:50 pm48 °FLight rain. Broken clouds.14 mph87%29.53 "HgN/A
4:20 pm48 °FLight rain. Broken clouds.14 mph94%29.53 "HgN/A
3:50 pm48 °FLight rain. Broken clouds.13 mph94%29.56 "HgN/A
3:20 pm48 °FLight rain. Broken clouds.17 mph87%29.56 "HgN/A
2:50 pm48 °FLight rain. Broken clouds.20 mph94%29.56 "HgN/A
2:20 pm48 °FLight rain. Broken clouds.18 mph94%29.56 "HgN/A
1:50 pm46 °FLight rain. Broken clouds.21 mph93%29.59 "Hg6 mi
12:50 pm46 °FLight rain. Partly sunny.20 mph87%29.56 "HgN/A
12:20 pm46 °FLight rain. Partly sunny.20 mph87%29.59 "HgN/A
11:50 am46 °FLight rain. Partly sunny.16 mph87%29.59 "HgN/A
11:20 am46 °FLight rain. Partly sunny.16 mph87%29.59 "HgN/A
10:50 am46 °FLight rain. Partly sunny.18 mph87%29.59 "HgN/A
10:20 am46 °FLight rain. Partly sunny.18 mph87%29.59 "HgN/A
9:50 am46 °FLight rain. Partly sunny.17 mph87%29.59 "HgN/A
9:20 am45 °FLight rain. Partly sunny.18 mph93%29.62 "HgN/A
Weather by CustomWeather, © 2020

See weather overview